Weather History for Denver, CO

Change the Weather History Date:

Thursday, January 10, 2013

  Actual Average Record
Temperature  
Mean Temperature 36 °F 31 °F  
Max Temperature 46 °F 44 °F 71 °F (1990)
Min Temperature 25 °F 18 °F -24 °F (1962)
Degree Days  
Heating Degree Days 29 34  
Month to date heating degree days 345 345  
Since 1 July heating degree days 2578 2813  
Cooling Degree Days 0 0  
Month to date cooling degree days 0 0  
Year to date cooling degree days 0 0  
Moisture  
Dew Point 14 °F    
Average Humidity 41    
Maximum Humidity 59    
Minimum Humidity 23    
Precipitation  
Precipitation 0.00 in 0.01 in 0.29 in (2002)
Month to date precipitation 0.00 0.13  
Year to date precipitation 0.00 0.13  
Snow  
Snow 0.00 in - - ()
Month to date snowfall 0  
Since 1 July snowfall 12.4  
Snow Depth T in    
Sea Level Pressure  
Sea Level Pressure 29.63 in    
Wind  
Wind Speed 11 mph (SW)    
Max Wind Speed 31 mph    
Max Gust Speed 38 mph    
Visibility 10 miles    
Events      
T = Trace of Precipitation, MM = Missing Value Source: NWS Daily Summary

Daily Weather History Graph

Daily Weather History Graph

Search for Another Location

Airport:

Trip Planner

Search our weather history database for the weather conditions in past years. The results will help you decide how hot, cold, wet, or windy it might be!

Date:

Astronomy

Jan. 10, 2013 Rise Set
Actual Time 7:19 AM MST 4:53 PM MST
Civil Twilight 6:49 AM MST 5:23 PM MST
Nautical Twilight 6:16 AM MST 5:56 PM MST
Astronomical Twilight 5:43 AM MST 6:29 PM MST
Moon 6:01 AM MST (1/10) 4:03 PM MST (1/10)
Length of Visible Light 10h 33m
Length of Day
9h 33m
Waning Crescent, 2% of the Moon is Illuminated
Jan 10
Waning Crescent
Jan 11
New
Jan 18
First Quarter
Jan 26
Full
Feb 3
Last Quarter

Hourly Weather History & Observations

Time (MST) Temp. Windchill Dew Point Humidity Pressure Visibility Wind Dir Wind Speed Gust Speed Precip Events Conditions
12:53 AM 43.0 °F 33.3 °F 10.9 °F 27% 29.85 in 10.0 mi South 25.3 mph 34.5 mph N/A   Clear
1:53 AM 43.0 °F 33.1 °F 10.0 °F 26% 29.81 in 10.0 mi South 26.5 mph 34.5 mph N/A   Clear
2:53 AM 42.1 °F 32.1 °F 10.0 °F 27% 29.79 in 10.0 mi South 25.3 mph 33.4 mph N/A   Partly Cloudy
3:53 AM 39.9 °F 30.0 °F 8.1 °F 27% 29.78 in 10.0 mi South 21.9 mph - N/A   Partly Cloudy
4:53 AM 41.0 °F 31.9 °F 6.1 °F 24% 29.78 in 10.0 mi South 19.6 mph - N/A   Partly Cloudy
5:53 AM 37.0 °F 27.7 °F 7.0 °F 29% 29.78 in 10.0 mi SSW 16.1 mph 24.2 mph N/A   Partly Cloudy
6:53 AM 30.0 °F 23.2 °F 12.0 °F 47% 29.80 in 10.0 mi SW 6.9 mph - N/A   Scattered Clouds
7:53 AM 36.0 °F - 10.9 °F 36% 29.76 in 10.0 mi Calm Calm - N/A   Mostly Cloudy
8:53 AM 37.9 °F 32.7 °F 12.0 °F 35% 29.73 in 10.0 mi West 6.9 mph - N/A   Mostly Cloudy
9:53 AM 37.0 °F 32.4 °F 17.1 °F 44% 29.72 in 10.0 mi NNE 5.8 mph - N/A   Mostly Cloudy
10:53 AM 37.9 °F 34.4 °F 19.0 °F 47% 29.68 in 10.0 mi North 4.6 mph - N/A   Mostly Cloudy
11:53 AM 41.0 °F 36.4 °F 18.0 °F 40% 29.61 in 10.0 mi WNW 6.9 mph - N/A   Mostly Cloudy
12:53 PM 37.9 °F 33.5 °F 19.0 °F 47% 29.58 in 10.0 mi WNW 5.8 mph - N/A   Overcast
1:53 PM 37.0 °F 32.4 °F 18.0 °F 46% 29.57 in 9.0 mi WNW 5.8 mph - N/A   Overcast
2:53 PM 36.0 °F - 19.9 °F 52% 29.55 in 10.0 mi Calm Calm - N/A   Overcast
3:53 PM 35.1 °F 31.0 °F 21.0 °F 57% 29.54 in 10.0 mi SSE 4.6 mph - N/A   Overcast
4:53 PM 35.1 °F - 15.1 °F 44% 29.52 in 10.0 mi Calm Calm - N/A   Mostly Cloudy
5:53 PM 35.1 °F 32.2 °F 12.0 °F 39% 29.52 in 10.0 mi SE 3.5 mph - N/A   Mostly Cloudy
6:53 PM 32.0 °F 26.4 °F 19.0 °F 59% 29.54 in 10.0 mi NW 5.8 mph - N/A   Mostly Cloudy
7:53 PM 32.0 °F 25.6 °F 16.0 °F 52% 29.51 in 10.0 mi West 6.9 mph - N/A   Mostly Cloudy
8:53 PM 34.0 °F 31.0 °F 15.1 °F 46% 29.48 in 10.0 mi South 3.5 mph - N/A   Mostly Cloudy
9:53 PM 45.0 °F 38.5 °F 12.0 °F 26% 29.42 in 10.0 mi SSW 13.8 mph 23.0 mph N/A   Mostly Cloudy
10:53 PM 44.1 °F 35.9 °F 12.9 °F 28% 29.38 in 10.0 mi SSW 19.6 mph - N/A   Partly Cloudy
11:53 PM 43.0 °F 34.0 °F 14.0 °F 31% 29.37 in 10.0 mi SSW 21.9 mph 34.5 mph N/A   Clear